User: anonymous   Login
Location: Unspecified
(0.0000°N, 0.0000°E)
Time: 03:25:01
(UTC+00:00)
Language:

AAUSAT CUBESAT 2 - Orbit

View from above orbital plane
View from above orbital plane
View from above satellite
View from above satellite

Ground track
Ground track

The orbit data is extracted from the following two-line orbital elements,

1 32788U 08021F   20185.78296127 +.00000050 +00000-0 +95000-5 0  9991
2 32788 097.4907 189.5558 0011946 009.4687 350.6758 14.95082902661751
Epoch (UTC): 03 July 2020 18:47:27
Eccentricity: 0.0011946
inclination: 97.4907°
perigee height: 574 km
apogee height: 590 km
right ascension of ascending node: 189.5558°
argument of perigee: 9.4687°
revolutions per day: 14.95082902
mean anomaly at epoch: 350.6758°
orbit number at epoch: 66175

The dashed part of the orbit path shows where the satellite is in the earth's shadow,  

DLR